Tracking 33068 objects as of 24-Jan-2026
HD Live streaming from Space Station
objects crossing your sky now

WESTFORD NEEDLES

Track WESTFORD NEEDLES now!
10-day predictions
WESTFORD NEEDLES is classified as:


NORAD ID: 2949
Int'l Code: 1963-014AS
Perigee: 1,215.7 km
Apogee: 5,781.0 km
Inclination: 85.6 °
Period: 162.6 minutes
Semi major axis: 9869 km
RCS: 0.2138 m2 (medium)
Launch date: May 9, 1963
Source: United States (US)
Launch site: AIR FORCE WESTERN TEST RANGE (AFWTR)
Your satellite tracking list
Your tracking list is empty




NASA's NSSDC Master Catalog

Two Line Element Set (TLE):
1 02949U 63014AS  26017.21244241  .00001217  00000-0  24781-1 0  9998
2 02949  85.5596  27.4301 2312890 263.4432  88.9694  8.85462443382449
Source of the keplerian elements: AFSPC